Wind_Speed
9 10 10 11 12 12 13 14 15 15 16 16 17 18 18 18 18 19 19 20 21 22 24 25 26 27 27 28 30 31 32 33 34 36 38 39 40 40 41 42 43 44 46
9 10 10 11 12 13 14 15 15 16 17 17 18 19 19 19 19 19 20 21 22 23 24 25 26 27 28 29 30 31 33 34 35 36 38 39 41 41 42 43 44 45 46
10 10 10 11 12 13 14 15 16 17 18 19 20 20 20 20 20 20 21 22 23 24 24 25 26 27 28 29 30 32 33 34 35 36 38 39 41 43 44 44 46 46 46
10 10 11 12 13 14 15 16 17 18 19 20 21 21 22 22 21 22 22 23 24 24 25 26 26 27 28 29 30 30 32 33 34 36 37 39 41 43 45 45 46 48 48
10 11 11 12 13 14 16 17 18 19 20 21 22 23 23 23 23 23 24 25 25 25 26 26 27 27 28 28 29 30 30 32 33 35 36 38 41 43 45 46 47 48 49
11 12 12 13 14 16 17 18 19 20 21 22 23 23 24 24 24 25 25 25 26 26 27 27 27 28 28 28 28 29 30 30 32 33 35 37 39 41 44 45 47 48 49
12 13 14 15 16 17 18 19 20 21 22 23 23 24 25 25 26 26 27 27 27 27 27 28 28 28 29 28 28 29 30 31 32 33 33 35 38 40 42 44 45 46 47
14 15 15 16 17 19 20 21 21 22 23 24 24 25 25 26 27 28 27 27 27 28 28 28 28 28 28 28 28 28 29 30 31 32 33 34 36 38 40 42 43 44 46
15 16 17 18 19 20 21 22 23 23 24 24 25 26 27 28 29 29 28 27 28 29 28 28 28 28 28 27 27 28 28 29 30 31 32 33 33 35 37 40 41 43 44
17 18 19 19 20 21 22 23 24 24 25 25 26 27 27 28 29 29 29 29 29 29 29 28 28 27 27 27 27 27 28 28 29 30 31 32 32 33 35 36 38 40 41
18 19 20 21 22 23 24 24 25 25 26 26 27 28 28 29 29 30 30 30 30 30 30 29 28 28 27 27 27 27 27 28 28 28 29 30 30 31 32 34 35 37 38
20 21 22 23 24 25 25 26 26 26 27 27 28 29 29 30 30 30 31 30 30 30 30 30 29 28 28 28 28 27 27 27 27 27 27 27 28 29 30 31 33 34 36
21 22 23 24 25 26 27 27 28 28 28 29 29 30 30 31 31 32 32 32 32 31 31 30 30 30 29 29 29 28 27 26 26 26 26 26 26 27 28 28 30 32 33
23 24 25 25 26 27 28 28 29 29 29 30 31 31 31 31 32 33 33 33 33 32 31 31 30 30 29 28 28 27 26 25 25 24 24 24 24 25 25 26 27 28 29
25 25 26 27 27 28 29 29 30 31 31 32 32 33 32 33 33 34 34 34 34 33 32 31 31 30 30 28 27 27 26 24 23 23 22 22 22 22 23 24 24 26 28
26 27 27 28 29 30 31 31 32 32 33 33 34 34 34 35 35 35 35 35 34 33 32 31 31 30 30 29 28 26 26 24 23 22 21 21 20 21 21 22 24 24 26
27 28 29 30 31 32 32 33 33 34 35 35 36 36 36 36 36 36 36 36 34 33 32 31 31 30 30 29 28 27 25 24 23 22 21 20 20 19 20 21 22 23 24
29 30 31 32 33 34 34 34 34 35 35 36 37 38 38 38 38 37 37 36 35 34 33 32 31 30 29 29 28 27 25 24 23 22 21 20 20 20 19 20 21 22 23
31 32 33 34 34 35 36 36 37 37 38 38 39 39 39 39 39 38 37 36 36 35 34 32 32 30 29 28 27 26 25 23 22 21 21 20 20 20 19 19 20 20 21
33 34 35 36 37 37 38 39 39 39 40 39 39 40 40 40 39 38 38 36 36 35 34 32 32 30 29 27 26 25 24 23 22 21 20 20 19 18 18 18 18 19 20
35 36 37 38 39 40 41 41 41 41 41 41 41 41 41 40 39 38 37 37 36 34 33 32 31 30 29 27 26 25 24 23 22 21 20 19 18 17 17 17 17 18 19
38 39 40 41 41 41 42 42 43 43 43 43 42 42 42 41 40 39 38 37 36 34 33 32 30 29 28 27 26 25 24 23 22 21 20 18 17 17 17 17 17 17 18
40 41 42 43 43 43 43 44 44 44 44 44 43 43 43 42 41 40 38 37 35 34 33 32 30 29 27 26 26 25 24 23 22 21 20 19 18 17 16 16 17 17 18
42 43 43 44 44 44 44 44 45 45 45 44 44 44 43 42 41 40 38 36 35 33 32 31 30 29 28 26 25 25 24 22 21 21 20 19 19 18 16 16 16 17 18
43 44 45 45 45 45 46 46 46 46 46 45 45 44 43 42 41 39 38 37 35 32 32 31 30 29 28 27 26 25 24 22 21 21 20 19 18 17 16 16 16 16 17
44 45 46 46 46 46 47 47 47 47 46 45 45 44 43 41 40 39 38 36 34 33 32 30 29 28 27 26 25 24 24 22 21 20 19 19 18 17 16 16 16 15 15
Wind_Direction
0 2 1 360 357 355 353 351 348 345 343 340 338 335 331 326 321 315 311 307 302 297 293 288 283 280 276 273 270 267 263 261 258 257 255 253 252 250 248 246 243 242 241
357 357 356 355 355 353 351 350 347 346 344 342 340 337 332 328 325 320 315 312 308 304 299 293 288 284 280 277 273 270 267 264 262 258 257 255 253 251 249 247 244 242 241
352 351 350 349 348 347 345 345 344 342 340 338 337 335 332 328 326 322 319 316 312 308 304 299 294 289 284 280 277 273 270 268 265 261 258 256 255 253 251 249 247 245 242
346 345 343 342 341 341 341 340 339 338 337 336 335 334 332 329 326 324 322 319 315 311 307 303 299 294 289 285 281 277 273 270 267 265 261 258 256 255 253 250 249 247 244
339 338 337 336 336 336 337 337 336 335 335 335 335 334 332 330 327 325 323 320 317 314 310 307 303 299 294 290 285 281 278 274 271 268 264 261 258 256 253 251 249 247 244
330 331 331 330 331 331 332 333 334 334 334 334 334 333 333 330 327 325 323 321 320 317 314 311 307 302 298 294 289 284 280 277 274 271 269 265 262 258 255 252 250 248 245
321 323 324 325 326 327 328 330 331 332 333 333 332 332 332 331 329 326 323 322 321 320 317 313 310 306 301 296 292 288 284 280 277 275 273 269 264 260 256 254 251 248 245
314 316 319 321 323 325 326 327 328 329 330 331 331 331 330 330 330 327 324 322 322 321 319 316 313 309 306 301 296 292 288 284 281 278 275 271 266 261 257 254 251 248 245
309 312 315 317 320 323 325 325 325 326 327 328 329 329 328 328 329 329 327 324 323 322 321 318 315 312 309 306 301 296 292 288 284 281 277 273 269 264 259 255 252 249 246
305 308 311 313 316 319 321 322 322 323 324 325 326 327 327 327 328 328 328 326 324 323 322 320 318 315 313 311 306 301 296 292 288 284 280 275 270 265 261 256 252 249 246
303 306 308 310 313 315 317 318 319 321 322 323 324 326 326 326 326 326 327 326 325 324 323 321 319 317 315 313 309 304 300 296 291 287 283 278 272 266 263 257 254 250 247
300 304 306 308 310 312 314 316 317 319 319 321 322 323 324 324 324 325 326 325 324 323 322 321 320 318 316 314 312 307 303 299 294 290 286 282 275 268 263 257 253 251 247
299 302 305 307 308 310 312 314 315 317 318 319 320 321 322 322 323 323 324 324 324 323 322 321 320 319 318 315 313 311 307 302 298 294 288 283 277 271 265 258 253 252 248
297 300 303 305 307 309 311 312 313 315 316 317 318 319 320 320 321 322 322 322 322 322 320 320 320 320 319 317 315 313 310 307 303 298 292 285 279 273 266 260 255 252 247
296 299 301 304 306 308 310 310 311 312 313 315 316 317 318 319 320 320 321 321 320 320 319 318 318 319 319 318 316 314 312 309 306 302 296 289 281 274 268 261 254 251 248
295 297 300 302 305 306 307 308 309 310 312 313 314 315 315 316 317 318 318 319 318 318 317 316 316 317 317 317 315 314 311 309 306 303 299 293 286 277 271 263 257 254 251
294 296 298 300 302 303 305 307 308 309 310 311 312 313 314 314 315 315 316 316 316 316 316 315 314 314 315 315 314 313 311 310 307 304 300 295 289 283 276 269 262 257 254
293 294 297 298 299 301 303 305 306 307 308 309 309 311 311 312 312 313 313 313 313 314 314 313 313 312 313 313 313 312 311 309 308 305 300 295 291 287 280 272 267 262 257
292 294 296 298 299 300 301 303 304 304 305 306 307 308 309 309 310 310 310 310 310 311 311 312 312 311 312 312 311 311 311 309 308 306 302 297 292 286 279 273 270 265 258
292 294 295 297 298 298 299 301 302 303 304 304 305 306 306 307 307 307 307 307 308 308 309 309 310 309 309 310 310 309 309 308 307 306 303 299 294 286 279 273 268 265 259
292 294 295 295 296 297 298 299 300 301 301 302 303 303 304 304 305 305 305 305 305 305 306 306 306 307 307 307 308 308 307 306 306 304 301 298 295 288 283 277 270 264 258
292 293 294 294 295 296 297 297 299 300 300 301 301 301 302 302 302 302 303 303 303 302 302 302 303 304 305 305 304 304 305 304 303 299 297 296 294 291 284 276 270 267 262
292 293 294 294 295 296 297 297 298 299 299 299 299 299 299 300 300 300 300 300 299 300 300 299 299 299 300 301 301 301 303 303 301 298 294 292 290 289 285 277 271 266 262
292 292 293 294 295 296 296 296 297 298 299 298 297 297 297 297 297 297 298 298 297 297 296 296 296 296 296 296 297 300 301 299 298 297 293 290 289 287 283 279 273 266 262
292 292 293 294 294 294 295 296 296 297 297 297 297 296 295 295 294 294 294 294 293 293 294 293 292 292 292 292 294 297 298 296 295 295 291 286 286 285 282 278 273 267 264
291 292 292 293 294 294 294 295 295 296 296 296 296 295 294 293 293 292 292 292 290 290 291 290 289 289 290 290 291 294 295 293 292 293 290 285 283 281 280 277 273 268 264
Height
5829 5827 5825 5824 5822 5820 5818 5816 5814 5812 5809 5807 5804 5801 5798 5796 5794 5791 5789 5787 5785 5784 5782 5781 5780 5779 5778 5778 5777 5777 5778 5779 5780 5781 5782 5783 5786 5788 5791 5794 5798 5801 5805
5827 5825 5824 5822 5821 5819 5817 5814 5812 5809 5807 5804 5801 5798 5795 5792 5789 5787 5785 5782 5780 5777 5775 5774 5772 5771 5770 5769 5768 5768 5768 5768 5770 5771 5771 5773 5774 5777 5779 5783 5786 5789 5793
5826 5824 5822 5821 5819 5817 5815 5812 5810 5807 5804 5801 5798 5795 5792 5788 5785 5782 5780 5777 5774 5771 5769 5766 5764 5762 5761 5759 5758 5758 5757 5757 5758 5759 5760 5761 5763 5765 5767 5770 5773 5777 5780
5824 5822 5821 5819 5817 5815 5813 5810 5808 5805 5802 5798 5795 5792 5788 5785 5781 5778 5775 5771 5768 5765 5762 5759 5756 5754 5752 5750 5749 5747 5747 5746 5747 5748 5748 5749 5751 5752 5754 5757 5760 5763 5767
5822 5821 5819 5817 5815 5813 5810 5808 5805 5802 5799 5795 5792 5788 5784 5780 5777 5773 5770 5766 5762 5759 5755 5752 5749 5746 5743 5741 5739 5737 5736 5736 5736 5736 5736 5737 5738 5739 5741 5743 5747 5750 5754
5820 5818 5817 5815 5812 5810 5807 5805 5802 5798 5795 5792 5788 5784 5780 5776 5772 5768 5764 5760 5756 5752 5748 5744 5741 5738 5735 5732 5730 5728 5726 5725 5725 5724 5724 5725 5725 5726 5727 5729 5733 5737 5741
5817 5816 5814 5811 5809 5807 5804 5801 5798 5795 5791 5788 5784 5780 5776 5772 5767 5763 5759 5755 5751 5746 5742 5738 5734 5730 5727 5724 5721 5719 5717 5715 5714 5713 5713 5712 5712 5713 5715 5717 5719 5722 5727
5814 5812 5810 5808 5806 5803 5800 5797 5794 5791 5787 5783 5779 5775 5771 5767 5763 5758 5754 5749 5745 5740 5736 5731 5727 5722 5719 5715 5712 5710 5707 5705 5704 5703 5702 5701 5700 5700 5702 5704 5706 5710 5714
5810 5808 5806 5804 5802 5799 5796 5793 5790 5786 5783 5779 5775 5771 5767 5762 5758 5753 5748 5743 5739 5734 5729 5724 5720 5715 5711 5707 5704 5701 5698 5695 5693 5692 5691 5689 5689 5689 5689 5691 5694 5697 5702
5806 5804 5802 5800 5797 5794 5791 5788 5785 5781 5778 5774 5770 5766 5762 5757 5752 5748 5743 5738 5733 5728 5723 5718 5713 5708 5704 5700 5696 5693 5689 5686 5684 5682 5680 5679 5678 5678 5678 5680 5682 5685 5689
5801 5799 5797 5795 5792 5789 5786 5783 5780 5776 5772 5769 5765 5760 5756 5752 5747 5742 5737 5732 5727 5722 5716 5711 5706 5702 5697 5693 5689 5685 5681 5678 5675 5673 5670 5669 5668 5667 5668 5669 5671 5674 5677
5796 5794 5792 5790 5787 5784 5781 5778 5774 5770 5767 5763 5759 5755 5750 5746 5741 5736 5731 5726 5721 5715 5710 5705 5700 5695 5690 5686 5681 5677 5673 5670 5667 5664 5661 5659 5658 5657 5658 5659 5660 5662 5666
5790 5788 5786 5784 5781 5778 5775 5772 5768 5764 5761 5757 5753 5749 5744 5739 5735 5730 5725 5719 5714 5709 5704 5698 5693 5688 5683 5679 5674 5670 5666 5662 5659 5656 5653 5651 5649 5649 5648 5649 5651 5652 5655
5784 5782 5780 5778 5775 5772 5769 5765 5762 5758 5754 5750 5746 5742 5737 5733 5728 5723 5718 5712 5707 5702 5697 5692 5687 5682 5677 5672 5668 5663 5659 5655 5652 5649 5646 5643 5642 5641 5640 5641 5642 5644 5646
5778 5776 5773 5771 5768 5765 5762 5759 5755 5751 5747 5743 5739 5735 5730 5726 5721 5716 5711 5706 5700 5695 5690 5685 5680 5676 5671 5666 5661 5657 5652 5649 5645 5642 5639 5637 5635 5634 5633 5633 5635 5636 5638
5771 5769 5767 5764 5761 5758 5755 5751 5747 5744 5740 5736 5731 5727 5723 5718 5714 5709 5704 5698 5693 5688 5683 5678 5673 5669 5664 5659 5655 5650 5646 5642 5639 5636 5633 5631 5629 5627 5627 5627 5628 5629 5631
5764 5762 5759 5756 5753 5750 5747 5743 5740 5736 5731 5727 5723 5719 5714 5710 5705 5701 5696 5691 5686 5681 5676 5671 5667 5662 5658 5653 5648 5644 5640 5636 5633 5630 5627 5625 5623 5622 5621 5621 5621 5622 5623
5756 5754 5751 5748 5745 5742 5739 5735 5731 5728 5724 5719 5714 5710 5706 5701 5697 5692 5687 5683 5678 5673 5669 5664 5659 5655 5651 5646 5642 5638 5634 5630 5627 5624 5621 5619 5617 5616 5615 5615 5615 5615 5617
5748 5745 5743 5740 5736 5733 5729 5726 5722 5718 5714 5710 5706 5701 5696 5692 5688 5683 5679 5674 5670 5665 5661 5657 5652 5648 5644 5640 5636 5632 5628 5625 5621 5619 5616 5614 5612 5610 5609 5609 5609 5609 5610
5739 5736 5733 5730 5727 5723 5720 5716 5712 5708 5704 5700 5696 5692 5687 5682 5678 5674 5669 5665 5661 5657 5653 5649 5645 5640 5637 5633 5629 5626 5622 5619 5616 5613 5610 5608 5606 5604 5604 5603 5603 5603 5604
5729 5726 5723 5720 5716 5713 5709 5705 5701 5698 5694 5690 5686 5681 5677 5673 5668 5664 5660 5656 5652 5648 5644 5640 5637 5633 5629 5626 5623 5619 5616 5613 5610 5607 5605 5603 5601 5599 5598 5598 5598 5598 5598
5719 5716 5713 5709 5705 5702 5698 5694 5690 5686 5682 5678 5674 5670 5666 5662 5658 5654 5650 5646 5643 5639 5636 5632 5629 5625 5622 5619 5616 5613 5610 5607 5605 5602 5600 5597 5596 5595 5593 5593 5592 5592 5593
5708 5704 5701 5697 5693 5690 5686 5682 5678 5674 5670 5666 5662 5658 5654 5650 5647 5643 5640 5636 5633 5630 5627 5623 5620 5617 5615 5612 5609 5606 5604 5601 5599 5596 5594 5593 5591 5590 5588 5588 5587 5587 5588
5695 5692 5689 5685 5681 5677 5673 5669 5665 5661 5657 5653 5649 5645 5642 5638 5635 5632 5629 5626 5623 5620 5617 5615 5612 5609 5607 5604 5602 5599 5597 5594 5592 5590 5589 5587 5586 5584 5583 5583 5582 5582 5582
5683 5679 5676 5672 5668 5664 5660 5656 5652 5648 5644 5640 5636 5632 5629 5626 5623 5620 5617 5615 5612 5610 5607 5605 5603 5601 5599 5597 5594 5592 5590 5588 5586 5584 5583 5581 5580 5579 5578 5578 5577 5577 5577
5670 5666 5662 5659 5655 5651 5647 5643 5639 5634 5630 5626 5623 5619 5616 5613 5611 5608 5606 5603 5601 5599 5598 5596 5594 5592 5590 5588 5587 5585 5583 5581 5579 5578 5576 5575 5574 5573 5573 5572 5572 5572 5572